Overview Statistics Trail Chart Weather Telemetry Raw packets
 

This is the latest recevied weather packets stored in our database for station/object KG5APU. If no packets are shown the sender has not sent any weather packets the latest 10 day(s).

<< 29 30 31 32 33 34 35 >>
Time Temp. Humidity Pressure Rain* Wind** Luminosity Snow
1788194440 33.89° C 51% 1018.2 hPa 0 mm - 670 W/m² -
1788193821 35° C 51% 1018.4 hPa 0 mm - 646 W/m² -
1788193218 33.89° C 49% 1018.5 hPa 0 mm - 621 W/m² -
1788192616 33.89° C 46% 1018.4 hPa 0 mm - 597 W/m² -
1788192015 32.78° C 50% 1018.2 hPa 0 mm - 566 W/m² -
1788191407 32.78° C 52% 1018.2 hPa 0 mm - 539 W/m² -
1788190802 32.78° C 53% 1018.6 hPa 0 mm - 516 W/m² -
1788190200 31.67° C 55% 1018.2 hPa 0 mm - 485 W/m² -
1788189595 31.67° C 56% 1018.5 hPa 0 mm - 457 W/m² -
1788188996 31.11° C 57% 1018.4 hPa 0 mm - 426 W/m² -
1788188391 30.56° C 58% 1018.1 hPa 0 mm - 396 W/m² -
1788187789 30.56° C 60% 1018.2 hPa 0 mm - 364 W/m² -
1788187185 30.56° C 62% 1018.2 hPa 0 mm - 334 W/m² -
1788186581 30° C 64% 1018.4 hPa 0 mm - 300 W/m² -
1788185978 30° C 65% 1018.2 hPa 0 mm - 263 W/m² -
1788185373 30° C 66% 1018.4 hPa 0 mm - 227 W/m² -
1788184772 29.44° C 68% 1018.4 hPa 0 mm - 201 W/m² -
1788184172 28.89° C 69% 1018.1 hPa 0 mm - 174 W/m² -
1788183568 28.89° C 71% 1018.1 hPa 0 mm - 148 W/m² -
1788182963 28.89° C 71% 1017.8 hPa 0 mm - 124 W/m² -
1788182358 28.33° C 72% 1017.8 hPa 0 mm - 103 W/m² -
1788181755 27.78° C 74% 1017.5 hPa 0 mm - 84 W/m² -
1788181155 27.78° C 74% 1017.4 hPa 0 mm - 66 W/m² -
1788180552 27.22° C 76% 1017.2 hPa 0 mm - 50 W/m² -
1788179948 26.67° C 77% 1017.2 hPa 0 mm - 37 W/m² -

* Rain latest hour (hover to see other rain measurements)
** Current wind speed in m/s (hover to see current wind gust speed)